Regional Weather Roundup
Issued by NWS

Home | Current Version | Previous Version | Text Only | Print | Product List | Glossary On
Versions: 1 2 3 4 5 6 7 8 9 10 11 12 13 14 15 16 17 18 19 20 21 22 23 24 25 26 27 28 29 30 31 32 33 34 35 36 37 38 39 40 41 42 43 44 45 46 47 48 49 50
000
ASUS43 KDMX 240201
RWRIA

WEATHER ROUNDUP FOR IOWA
NATIONAL WEATHER SERVICE DES MOINES IA
800 PM CST TUE JAN 23 2018

NOTE: "FAIR" INDICATES FEW OR NO CLOUDS BELOW 12,000 FEET WITH NO
SIGNIFICANT WEATHER AND/OR OBSTRUCTIONS TO VISIBILITY.

* - THESE STATIONS ARE NOT NWS STATIONS...THUS NOT UNDER NWS
QUALITY CONTROL.  THEY ALSO DO NOT REPORT WEATHER SUCH
AS PRECIPITATION OR FOG.

IAZ001>003-012>014-020>022-031>034-043>046-240300-
   NORTHWEST IOWA

CITY           SKY/WX    TMP DP  RH WIND       PRES   REMARKS
CARROLL *      CLOUDY    23  21  93 NW7       30.19S WCI  15
CHEROKEE *     CLOUDY    22  22  98 W8        30.19S WCI  13
DENISON *      CLOUDY    23  23 100 W6        30.21R WCI  16
LE MARS *      CLOUDY    23  21  93 CALM      30.19S
ORANGE CITY *  CLOUDY    23  23 100 W5        30.17S WCI  17
SHELDON *      CLOUDY    21  21 100 W8        30.15S WCI  12
SIOUX CITY     CLOUDY    22  21  96 SE3       30.19F
SPENCER        MIX PCPN  22  19  89 W12       30.17R WCI  10
STORM LAKE *   CLOUDY    21  21 100 W12       30.17R WCI   9
$$

IAZ055>058-069>071-079>083-090>094-240300-
   SOUTHWEST IOWA

CITY           SKY/WX    TMP DP  RH WIND       PRES   REMARKS
ATLANTIC *     CLOUDY    25  23  93 W6        30.21S WCI  18
AUDUBON *      CLOUDY    23  19  86 CALM      30.19S
CLARINDA *     CLOUDY    25  25 100 CALM      30.24F
COUNCIL BLFS * CLOUDY    23  23 100 CALM      30.21S
CRESTON *      CLOUDY    25  21  86 W9        30.22S WCI  15
HARLAN  *      CLOUDY    25  25 100 W5        30.23S WCI  19
LAMONI         CLOUDY    25  20  81 W10       30.22R WCI  15
RED OAK *      CLOUDY    27  23  86 W3        30.23R
SHENANDOAH *   CLOUDY    27  25  93 CALM      30.25R
$$

IAZ047>049-059>061-072>074-084-240300-
   CENTRAL IOWA

CITY           SKY/WX    TMP DP  RH WIND       PRES   REMARKS
AMES           CLOUDY    25  22  88 W8        30.20S WCI  16
ANKENY *       CLOUDY    25  21  86 NW7       30.22S WCI  17
BOONE *        CLOUDY    25  21  86 NW7       30.18S WCI  17
CHARITON *     CLOUDY    25  21  86 NW8G14    30.22R WCI  16
DES MOINES     CLOUDY    26  20  77 NW12      30.21S WCI  16
GRINNELL*      CLOUDY    26  21  81 NW12      30.20R WCI  16
KNOXVILLE *    CLOUDY    27  19  74 W9        30.21R WCI  17
MARSHALLTOWN   CLOUDY    25  20  81 NW14      30.18S WCI  13
NEWTON *       CLOUDY    25  21  86 NW12      30.21R WCI  14
PELLA *        CLOUDY    27  21  79 NW8       30.23R WCI  18
PERRY *        CLOUDY    26  23  89 NW5       30.21S WCI  20
$$

IAZ004>006-015-016-023>025-035-036-240300-
   NORTH CENTRAL IOWA

CITY           SKY/WX    TMP DP  RH WIND       PRES   REMARKS
CLARION *      CLOUDY    23  23 100 W7        30.18S WCI  15
ESTHERVILLE    CLOUDY    21  19  92 W5        30.16R WCI  15
FORT DODGE *   CLOUDY    23  19  85 NW5       30.18F WCI  17
MASON CITY     CLOUDY    16  13  88 W5        30.17S WCI   9
FOREST CITY *    N/A     19  18  93 CALM      30.16F
WEBSTER CITY * CLOUDY    23  19  86 NW9       30.17S WCI  13
IOWA FALLS *     N/A     24  20  86 NW9       30.19S WCI  14
$$

IAZ007>011-017>019-026>030-037>042-050>054-066-240300-
   NORTHEAST IOWA

CITY           SKY/WX    TMP DP  RH WIND       PRES   REMARKS
CEDAR RAPIDS   CLOUDY    25  19  78 N13       30.17R WCI  14
CHARLES CITY *   N/A     19  19 100 NW6       30.17S WCI  11
CLINTON *      CLOUDY    26  22  84 NW9       30.17R WCI  17
DECORAH *      CLOUDY    21  19  93 NW12      30.15R WCI   9
DUBUQUE        CLOUDY    23  18  81 NW10      30.14R WCI  12
MONTICELLO *   CLOUDY    25  21  86 NW12      30.16R WCI  14
OELWEIN *      CLOUDY    23  23 100 NW12      30.17S WCI  12
WATERLOO         N/A     20  16  84 NW8       30.19R WCI  10
$$

IAZ064-065-067-068-078-240300-
   EAST CENTRAL IOWA

CITY           SKY/WX    TMP DP  RH WIND       PRES   REMARKS
DAVENPORT      CLOUDY    27  20  75 NW13      30.19R WCI  16
IOWA CITY      CLOUDY    28  18  66 NW14      30.20R WCI  17
MT. PLEASANT * CLOUDY    28  21  74 NW9       30.20R WCI  20
MUSCATINE *    CLOUDY    28  21  74 NW10G18   30.20R WCI  19
QUAD CITIES    CLOUDY    28  21  75 NW12      30.17R WCI  18
$$

IAZ062-063-075>077-085>089-095>099-240300-
   SOUTHEAST IOWA

CITY           SKY/WX    TMP DP  RH WIND       PRES   REMARKS
BURLINGTON     CLOUDY    28  21  75 NW8       30.19R WCI  20
FAIRFIELD *    CLOUDY    28  19  69 NW14      30.20R WCI  17
FORT MADISON * CLOUDY    28  21  74 NW12      30.21R WCI  18
KEOKUK *       CLOUDY    28  23  80 NW9G16    30.20R WCI  20
OSKALOOSA *    CLOUDY    26  22  82 NW15      30.22R WCI  14
OTTUMWA        CLOUDY    27  20  75 W10       30.20S WCI  17
WASHINGTON *   CLOUDY    28  23  80 NW12G21   30.21R WCI  18
$$

ABBREVIATIONS USED IN REMARKS
   TC - TEMPERATURES IN CELSIUS
  WCI - WIND CHILL INDEX
   HX - HEAT INDEX
  VSB - VISIBILITY
$$




USA.gov is the U.S. government's official web portal to all federal, state and local government web resources and services.